WILDTRACKCUBE-SIMBA

Last updated on Tue Jul 01 2025 00:03:44 GMT+0000 (Coordinated Universal Time)

1 47941U 21022K 25181.54751490 .00021553 00000+0 43637-3 0 9995 2 47941 97.4200 86.5697 0007742 223.2631 136.8011 15.46416077236438
UTC large
Height (km)
Speed (km/s)
/
Latitude / Longitude
Inclination (degrees)
Orbital Period (minutes)
Azimuth
Elevation
Range (km)
Doppler Factor

Next 0 passes for location: London (51.5072 / 0.1276)

Sorry there are no passes over London.